N1IJV-10 Weather Reports


time (UTC)temp
F
wind
direction
speed
knots
gust
knots
rain 1hr
in
rain 24hr
in
rain mn
in
humidity
%
barometer
mb
20260901203725 93 212 0.9 2.6 0.00 0.00 0.00 67 1010.8
20260901203225 93 310 0.9 1.7 0.00 0.00 0.00 68 1011.0
20260901202724 94 105 0.9 4.3 0.00 0.00 0.00 67 1010.9
20260901202220 94 225 2.6 4.3 0.00 0.00 0.00 66 1010.9
20260901201716 94 212 0.9 2.6 0.00 0.00 0.00 65 1010.8
20260901201215 94 250 1.7 2.6 0.00 0.00 0.00 67 1011.0
20260901200715 94 233 0.9 4.3 0.00 0.00 0.00 66 1011.1
20260901200210 93 226 2.6 5.2 0.00 0.00 0.00 66 1011.1
20260901195708 94 180 2.6 2.6 0.00 0.00 0.00 67 1011.1
20260901195202 95 92 1.7 5.2 0.00 0.00 0.00 66 1011.0
20260901194658 95 225 0.9 1.7 0.00 0.00 0.00 66 1010.9
20260901194153 95 243 0.9 4.3 0.00 0.00 0.00 67 1011.1
20260901193648 95 76 1.7 4.3 0.00 0.00 0.00 65 1011.2
20260901193142 95 168 2.6 5.2 0.00 0.00 0.00 67 1011.2
20260901192637 95 242 1.7 4.3 0.00 0.00 0.00 66 1011.2
20260901192132 95 245 1.7 4.3 0.00 0.00 0.00 64 1011.3
20260901191628 95 90 0.9 1.7 0.00 0.00 0.00 64 1011.2
20260901191125 95 206 1.7 5.2 0.00 0.00 0.00 64 1011.3
20260901190620 95 269 0.9 6.1 0.00 0.00 0.00 65 1011.1
20260901190119 95 177 1.7 2.6 0.00 0.00 0.00 69 1011.4
20260901185618 94 270 0.9 2.6 0.00 0.00 0.00 70 1011.3
20260901185116 94 231 0.0 1.7 0.00 0.00 0.00 70 1011.4
20260901184612 93 174 2.6 5.2 0.00 0.00 0.00 68 1011.5
20260901184108 94 165 0.9 4.3 0.00 0.00 0.00 71 1011.6
20260901183602 93 159 1.7 4.3 0.00 0.00 0.00 70 1011.5
20260901183057 93 161 0.9 7.0 0.00 0.00 0.00 69 1011.5
20260901182553 93 173 2.6 6.1 0.00 0.00 0.00 68 1011.4
20260901182048 93 22 3.5 5.2 0.00 0.00 0.00 68 1011.6
20260901181547 93 102 0.0 4.3 0.00 0.00 0.00 69 1011.7
20260901181047 93 100 0.9 4.3 0.00 0.00 0.00 69 1011.7
20260901180545 93 99 2.6 4.3 0.00 0.00 0.00 69 1011.6
20260901180040 93 100 0.9 1.7 0.00 0.00 0.00 68 1011.7
20260901175534 93 95 1.7 4.3 0.00 0.00 0.00 70 1011.7
20260901175028 93 104 0.9 4.3 0.00 0.00 0.00 69 1011.7
20260901174524 93 108 0.9 2.6 0.00 0.00 0.00 70 1011.5
20260901174020 92 103 0.9 4.3 0.00 0.00 0.00 70 1011.6
20260901173515 93 100 0.0 2.6 0.00 0.00 0.00 71 1011.6
20260901173011 92 93 1.7 4.3 0.00 0.00 0.00 71 1011.8
20260901172506 92 101 1.7 2.6 0.00 0.00 0.00 71 1011.6
20260901172004 92 114 2.6 4.3 0.00 0.00 0.00 73 1011.7
20260901171503 91 103 1.7 4.3 0.00 0.00 0.00 73 1011.7
20260901171002 91 128 1.7 5.2 0.00 0.00 0.00 71 1011.9
20260901170456 91 117 2.6 2.6 0.00 0.00 0.00 71 1011.9
20260901165955 91 167 2.6 2.6 0.00 0.00 0.00 72 1012.1
20260901165451 91 112 2.6 4.3 0.00 0.00 0.00 72 1012.1
20260901164947 91 100 0.9 2.6 0.00 0.00 0.00 74 1012.2
20260901164442 91 104 0.9 1.7 0.00 0.00 0.00 75 1012.1
20260901163937 90 102 0.9 0.9 0.00 0.00 0.00 74 1012.1
20260901163432 90 110 2.6 5.2 0.00 0.00 0.00 74 1012.1
20260901162930 90 94 3.5 4.3 0.00 0.00 0.00 73 1012.3
20260901162426 90 128 1.7 1.7 0.00 0.00 0.00 74 1012.1
20260901161920 89 103 2.6 2.6 0.00 0.00 0.00 75 1012.2
20260901161419 88 113 1.7 4.3 0.00 0.00 0.00 76 1012.3
20260901160914 88 125 2.6 5.2 0.00 0.00 0.00 75 1012.3
20260901160410 88 108 1.7 4.3 0.00 0.00 0.00 76 1012.2
20260901155909 88 105 2.6 4.3 0.00 0.00 0.00 76 1012.1
20260901155404 88 107 1.7 2.6 0.00 0.00 0.00 76 1012.3
20260901154901 87 110 2.6 2.6 0.00 0.00 0.00 76 1011.9
20260901154400 87 117 0.9 4.3 0.00 0.00 0.00 78 1011.8
20260901153855 87 170 2.6 4.3 0.00 0.00 0.00 77 1012.3
20260901153354 86 108 0.9 2.6 0.00 0.00 0.00 80 1012.1
20260901152854 86 110 0.9 1.7 0.00 0.00 0.00 78 1012.1
20260901152349 86 119 1.7 4.3 0.00 0.00 0.00 78 1012.3
20260901151843 86 110 0.0 0.9 0.00 0.00 0.00 79 1012.2
20260901151338 86 104 0.9 0.9 0.00 0.00 0.00 79 1011.9
20260901150837 85 112 0.9 2.6 0.00 0.00 0.00 80 1012.1
20260901150335 85 141 2.6 2.6 0.00 0.00 0.00 79 1012.1
20260901145833 85 105 0.9 0.9 0.00 0.00 0.00 80 1012.2
20260901145327 84 107 0.9 2.6 0.00 0.00 0.00 80 1011.9
20260901144822 84 111 0.9 2.6 0.00 0.00 0.00 80 1012.3
20260901144318 84 105 0.9 2.6 0.00 0.00 0.00 82 1012.1
20260901143814 84 106 0.9 1.7 0.00 0.00 0.00 81 1012.1
20260901143310 83 104 1.7 4.3 0.00 0.00 0.00 81 1012.1
20260901142806 83 101 2.6 4.3 0.00 0.00 0.00 82 1012.1
20260901142306 83 119 0.9 2.6 0.00 0.00 0.00 82 1012.2
20260901141800 82 120 0.9 2.6 0.00 0.00 0.00 82 1012.2
20260901141255 82 110 1.7 2.6 0.00 0.00 0.00 83 1012.1
20260901140754 82 103 2.6 2.6 0.00 0.00 0.00 83 1011.9
20260901140252 81 97 1.7 1.7 0.00 0.00 0.00 84 1011.9
20260901135748 81 105 1.7 4.3 0.00 0.00 0.00 85 1011.6
20260901135247 80 101 2.6 2.6 0.00 0.00 0.00 86 1012.1
20260901134744 80 107 0.0 0.9 0.00 0.00 0.00 87 1012.2
20260901134243 79 106 1.7 5.2 0.00 0.00 0.00 88 1012.1
20260901133742 79 108 0.9 1.7 0.00 0.00 0.00 89 1012.2
20260901133237 79 108 1.7 1.7 0.00 0.00 0.00 88 1012.2
20260901132735 78 114 0.9 2.6 0.00 0.00 0.00 88 1012.3
20260901132230 78 117 1.7 1.7 0.00 0.00 0.00 89 1012.1
20260901131725 78 112 0.0 0.9 0.00 0.00 0.00 90 1012.2
20260901131224 78 109 0.0 1.7 0.00 0.00 0.00 90 1012.2
20260901130720 77 109 0.0 0.9 0.00 0.00 0.00 91 1012.3
20260901130219 77 119 0.9 1.7 0.00 0.00 0.00 92 1012.3
20260901125717 77 118 0.0 0.9 0.00 0.00 0.00 92 1012.4
20260901125212 77 119 0.9 1.7 0.00 0.00 0.00 92 1012.4
20260901124706 77 118 0.9 0.9 0.00 0.00 0.00 93 1012.4
20260901124201 77 111 0.9 1.7 0.00 0.00 0.00 93 1012.6
20260901123655 76 115 0.9 1.7 0.00 0.00 0.00 93 1012.6
20260901123155 76 118 0.0 0.9 0.00 0.00 0.00 93 1012.4
20260901122654 76 118 0.9 0.9 0.00 0.00 0.00 93 1012.2
20260901122149 76 117 0.0 0.9 0.00 0.00 0.00 94 1012.2
20260901121643 76 121 0.9 1.7 0.00 0.00 0.00 94 1012.2
20260901121139 76 120 0.9 0.9 0.00 0.00 0.00 94 1012.2
20260901120638 76 119 0.0 0.9 0.00 0.00 0.00 94 1011.9
20260901120133 76 118 0.9 0.9 0.00 0.00 0.00 95 1011.6
20260901115629 75 120 0.0 0.0 0.00 0.00 0.00 95 1011.7
20260901115125 75 119 0.0 0.0 0.00 0.00 0.00 95 1011.7
20260901114622 75 119 0.0 0.9 0.00 0.00 0.00 95 1011.8
20260901114120 75 120 0.9 1.7 0.00 0.00 0.00 95 1011.6
20260901113619 75 121 0.0 0.9 0.00 0.00 0.00 95 1011.5
20260901113114 75 120 0.0 0.0 0.00 0.00 0.00 95 1011.5
20260901112609 75 120 0.0 0.0 0.00 0.00 0.00 95 1011.7
20260901112104 75 119 0.0 0.0 0.00 0.00 0.00 95 1011.6
20260901111603 75 121 0.0 0.0 0.00 0.00 0.00 95 1011.4
20260901111101 75 118 0.0 0.0 0.00 0.00 0.00 95 1011.4
20260901110557 75 123 0.0 0.0 0.00 0.00 0.00 95 1011.3
20260901110052 75 119 0.0 0.0 0.00 0.00 0.00 95 1011.1
20260901105549 75 120 0.0 0.0 0.00 0.00 0.00 95 1011.0
20260901105048 75 119 0.0 0.0 0.00 0.00 0.00 96 1011.2
20260901104544 75 121 0.0 0.0 0.00 0.00 0.00 95 1011.3
20260901104040 75 119 0.0 0.0 0.00 0.00 0.00 95 1011.3
20260901103534 75 120 0.0 0.0 0.00 0.00 0.00 95 1011.2
20260901103030 75 122 0.0 0.0 0.00 0.00 0.00 95 1011.2
20260901102529 75 120 0.0 0.9 0.00 0.00 0.00 95 1011.3
20260901102024 76 119 0.0 0.0 0.00 0.00 0.00 94 1010.9
20260901101520 76 120 0.0 0.0 0.00 0.00 0.00 93 1011.0
20260901101019 76 121 0.0 0.0 0.00 0.00 0.00 93 1011.3
20260901100514 76 121 0.0 0.9 0.00 0.00 0.00 93 1011.1
20260901100014 76 121 0.9 0.9 0.00 0.00 0.00 93 1011.0
20260901095512 76 120 0.0 0.9 0.00 0.00 0.00 93 1011.0
20260901095010 76 122 0.0 0.9 0.00 0.00 0.00 93 1011.2
20260901094505 76 122 0.0 0.9 0.00 0.00 0.00 93 1011.0
20260901094004 76 120 0.9 0.9 0.00 0.00 0.00 92 1011.1
20260901093504 76 121 0.0 0.9 0.00 0.00 0.00 92 1011.0
20260901092959 76 121 0.0 0.9 0.00 0.00 0.00 92 1010.9
20260901092454 76 122 0.0 0.9 0.00 0.00 0.00 92 1010.8
20260901091945 77 120 0.0 1.7 0.00 0.00 0.00 92 1011.0
20260901091440 77 119 0.0 1.7 0.00 0.00 0.00 91 1010.9
20260901090935 77 123 0.9 1.7 0.00 0.00 0.00 91 1011.1
20260901090434 77 120 0.0 0.9 0.00 0.00 0.00 91 1011.0
20260901085930 77 120 0.0 1.7 0.00 0.00 0.00 91 1010.8
20260901085426 77 119 0.0 0.9 0.00 0.00 0.00 91 1010.8
20260901084922 77 121 0.0 0.9 0.00 0.00 0.00 91 1011.0
20260901084418 77 123 0.0 0.9 0.00 0.00 0.00 90 1010.8
20260901083913 77 125 0.9 1.7 0.00 0.00 0.00 90 1010.7
20260901083408 77 129 0.9 0.9 0.00 0.00 0.00 90 1010.8
20260901082906 77 110 0.0 0.9 0.00 0.00 0.00 90 1010.9
20260901082401 77 119 0.0 2.6 0.00 0.00 0.00 90 1010.6
20260901081856 77 112 0.9 2.6 0.00 0.00 0.00 89 1010.7
20260901081352 77 109 1.7 1.7 0.00 0.00 0.00 89 1011.0
20260901080851 78 106 0.9 2.6 0.00 0.00 0.00 89 1010.7
20260901080346 78 118 0.9 1.7 0.00 0.00 0.00 89 1010.9
20260901075840 78 103 0.9 4.3 0.00 0.00 0.00 89 1010.7
20260901075336 78 111 1.7 1.7 0.00 0.00 0.00 89 1010.7
20260901074830 78 122 0.9 2.6 0.00 0.00 0.00 89 1010.7
20260901074325 78 107 1.7 2.6 0.00 0.00 0.00 89 1010.7
20260901073821 78 118 1.7 1.7 0.00 0.00 0.00 88 1010.8
20260901073316 78 123 1.7 2.6 0.00 0.00 0.00 88 1010.8
20260901072812 78 115 0.9 2.6 0.00 0.00 0.00 88 1010.8
20260901072311 78 109 0.9 1.7 0.00 0.00 0.00 88 1010.8
20260901071807 78 107 0.9 1.7 0.00 0.00 0.00 88 1010.6
20260901071305 78 123 1.7 2.6 0.00 0.00 0.00 87 1010.6
20260901070804 78 116 0.9 4.3 0.00 0.00 0.00 87 1010.6
20260901070300 78 117 0.9 1.7 0.00 0.00 0.00 88 1010.8
20260901065759 78 118 0.9 2.6 0.00 0.00 0.00 88 1010.7
20260901065254 78 110 0.0 0.9 0.00 0.00 0.00 88 1010.6
20260901064750 78 136 0.9 1.7 0.00 0.00 0.00 89 1010.5
20260901064246 78 118 0.9 2.6 0.00 0.00 0.00 89 1010.7
20260901063744 78 111 0.0 1.7 0.00 0.00 0.00 89 1010.7
20260901063239 78 132 0.9 1.7 0.00 0.00 0.00 89 1010.8
20260901062735 78 111 0.0 0.9 0.00 0.00 0.00 89 1010.5
20260901062231 78 86 0.0 0.9 0.00 0.00 0.00 89 1010.4
20260901061727 78 115 0.9 0.9 0.00 0.00 0.00 89 1010.5
20260901061226 78 110 0.0 1.7 0.00 0.00 0.00 89 1010.5
20260901060722 78 111 0.0 0.9 0.00 0.00 0.00 89 1010.5
20260901060217 78 135 1.7 1.7 0.00 0.00 0.00 89 1010.4
20260901055712 78 113 1.7 1.7 0.00 0.00 0.00 89 1010.6
20260901055209 78 117 0.9 1.7 0.00 0.00 0.00 89 1010.6
20260901054706 78 144 1.7 2.6 0.00 0.00 0.00 89 1010.4
20260901054202 78 111 0.9 1.7 0.00 0.00 0.00 89 1010.7
20260901053658 78 112 0.9 0.9 0.00 0.00 0.00 89 1010.7
20260901053153 78 112 0.0 1.7 0.00 0.00 0.00 89 1010.6
20260901052648 78 110 0.9 0.9 0.00 0.00 0.00 89 1010.5
20260901052143 78 112 0.0 2.6 0.00 0.00 0.00 89 1010.7
20260901051642 79 108 0.0 1.7 0.00 0.00 0.00 89 1010.7
20260901051142 79 112 0.9 0.9 0.00 0.00 0.00 88 1010.6
20260901050637 79 118 1.7 1.7 0.00 0.00 0.00 88 1010.7
20260901050132 79 108 0.0 0.9 0.00 0.00 0.00 88 1010.6
20260901045627 79 109 0.9 2.6 0.00 0.30 0.30 88 1010.6
20260901045122 79 125 0.9 2.6 0.00 0.30 0.30 88 1010.6
20260901044618 79 121 0.9 1.7 0.00 0.30 0.30 88 1010.3
20260901044113 79 120 1.7 1.7 0.00 0.30 0.30 88 1010.6
20260901043608 80 128 0.9 1.7 0.00 0.30 0.30 88 1010.5
20260901043059 80 129 2.6 2.6 0.00 0.30 0.30 88 1010.6
20260901042558 80 126 0.9 1.7 0.00 0.30 0.30 88 1010.6
20260901042053 80 130 1.7 2.6 0.00 0.30 0.30 88 1010.8
20260901041548 80 109 0.9 1.7 0.00 0.30 0.30 88 1010.7
20260901041042 80 125 1.7 1.7 0.00 0.30 0.30 88 1010.6
20260901040542 80 118 0.0 1.7 0.00 0.30 0.30 88 1010.8
20260901040037 80 117 0.9 1.7 0.00 0.30 0.30 88 1010.6
20260901035535 80 112 0.9 0.9 0.00 0.30 0.30 87 1010.7
20260901035033 80 127 1.7 1.7 0.00 0.30 0.30 87 1010.8
20260901034528 80 112 0.0 2.6 0.00 0.30 0.30 87 1010.7
20260901034023 80 126 2.6 2.6 0.00 0.30 0.30 87 1011.0
20260901033522 80 115 0.0 0.9 0.00 0.30 0.30 87 1010.9
20260901033021 81 120 0.9 1.7 0.00 0.30 0.30 86 1010.8
20260901032515 80 128 0.9 2.6 0.00 0.30 0.30 87 1010.8
20260901032016 81 113 0.0 1.7 0.00 0.30 0.30 86 1010.8
20260901031511 80 124 0.9 1.7 0.00 0.30 0.30 87 1010.9
20260901031006 80 120 0.9 0.9 0.00 0.30 0.30 87 1010.9
20260901030456 80 126 0.9 1.7 0.00 0.30 0.30 88 1010.6
20260901025954 80 116 0.0 0.9 0.00 0.30 0.30 89 1010.7
20260901025449 80 118 0.9 0.9 0.00 0.30 0.30 89 1010.8
20260901024948 80 119 0.0 0.9 0.00 0.30 0.30 88 1011.0
20260901024444 80 125 0.9 1.7 0.00 0.30 0.30 88 1010.8
20260901023943 80 132 1.7 1.7 0.00 0.30 0.30 88 1010.7
20260901023437 79 120 0.9 0.9 0.00 0.30 0.30 91 1010.8
20260901022932 79 117 0.0 0.0 0.00 0.30 0.30 91 1011.2
20260901022428 79 118 0.9 0.9 0.00 0.30 0.30 91 1011.2
20260901021923 80 117 0.0 0.9 0.00 0.30 0.30 89 1011.2
20260901021419 78 140 1.7 1.7 0.00 0.30 0.30 92 1011.1
20260901020914 78 117 0.0 0.9 0.00 0.30 0.30 94 1011.1
20260901020409 78 115 0.0 0.9 0.00 0.30 0.30 93 1010.9
20260901015908 78 116 0.0 0.9 0.00 0.30 0.30 92 1010.9
20260901015404 79 115 0.9 0.9 0.00 0.30 0.30 90 1010.8
20260901014903 80 138 0.9 1.7 0.00 0.30 0.30 88 1010.8
20260901014359 78 121 0.9 1.7 0.00 0.30 0.30 91 1010.6
20260901013855 78 117 0.0 0.0 0.00 0.30 0.30 92 1010.7
20260901013345 78 117 0.0 0.0 0.00 0.30 0.30 92 1010.7
20260901012841 79 116 0.0 0.9 0.00 0.30 0.30 91 1010.6
20260901012335 80 115 0.9 0.9 0.00 0.30 0.30 89 1010.6
20260901011831 80 117 0.0 0.9 0.00 0.30 0.30 87 1010.5
20260901011326 81 127 0.9 1.7 0.00 0.30 0.30 85 1010.5
20260901010819 80 126 0.9 0.9 0.00 0.30 0.30 85 1010.4
20260901010314 80 125 0.9 0.9 0.00 0.30 0.30 87 1010.4
20260901005813 80 116 0.9 0.9 0.00 0.30 0.30 88 1010.6
20260901005309 80 117 0.0 0.0 0.00 0.30 0.30 86 1010.7
20260901004809 81 124 0.0 0.9 0.00 0.30 0.30 85 1010.8
20260901004303 80 123 0.9 0.9 0.00 0.30 0.30 85 1010.6
20260901003802 80 118 0.9 0.9 0.00 0.30 0.30 86 1010.5
20260901003257 80 122 0.0 1.7 0.00 0.30 0.30 86 1010.9
20260901002751 80 120 0.0 0.9 0.00 0.30 0.30 87 1010.5
20260901002246 81 125 0.9 1.7 0.00 0.30 0.30 85 1010.5
20260901001741 81 116 0.9 1.7 0.00 0.30 0.30 85 1010.4
20260901001236 79 119 1.7 4.3 0.00 0.30 0.30 89 1010.8
20260901000726 78 117 1.7 2.6 0.00 0.30 0.30 95 1010.4
20260901000221 78 121 0.0 0.0 0.00 0.30 0.30 97 1010.5
20260831235720 78 119 0.0 0.0 0.00 0.30 0.30 97 1010.2
20260831235216 78 122 0.0 0.0 0.00 0.30 0.30 97 1010.1
20260831234715 78 119 0.0 0.9 0.00 0.30 0.30 96 1009.9
20260831234210 78 121 0.9 1.7 0.00 0.30 0.30 96 1009.3
20260831233705 78 122 0.0 0.9 0.00 0.30 0.30 96 1008.8
20260831233201 78 114 1.7 1.7 0.00 0.30 0.30 98 1009.3
20260831232655 78 121 0.0 0.9 0.00 0.30 0.30 98 1010.5
20260831232152 78 127 0.0 0.0 0.00 0.30 0.30 98 1010.8
20260831231648 78 131 0.9 0.9 0.00 0.30 0.30 98 1010.8
20260831231143 78 83 0.0 0.0 0.00 0.30 0.30 98 1011.0
20260831230638 79 89 0.0 0.9 0.00 0.30 0.30 98 1010.6
20260831230133 79 87 0.0 0.9 0.00 0.30 0.30 97 1010.4
20260831225628 79 89 0.0 0.0 0.00 0.30 0.30 98 1010.3
20260831225123 80 93 0.0 0.0 0.00 0.30 0.30 97 1010.1
20260831224618 79 87 0.0 0.0 0.00 0.30 0.30 97 1010.1
20260831224113 79 97 0.0 0.0 0.00 0.30 0.30 96 1010.3
20260831223609 79 92 0.0 0.0 0.00 0.30 0.30 95 1010.5
20260831223105 79 94 0.0 0.0 0.05 0.30 0.30 95 1010.3
20260831222600 80 87 0.0 0.9 0.66 0.30 0.30 93 1010.2
20260831222100 83 70 0.9 0.9 0.59 0.28 0.28 88 1010.2
20260831221556 84 132 0.0 0.0 0.00 0.18 0.18 79 1010.4
20260831221051 84 111 0.0 0.0 0.00 0.18 0.18 80 1010.5
20260831220550 85 92 0.0 0.0 0.00 0.18 0.18 79 1010.2
20260831220046 86 98 0.0 0.0 0.00 0.18 0.18 77 1010.2
20260831215542 86 114 0.0 0.9 0.00 0.18 0.18 75 1009.9
20260831215037 86 158 1.7 1.7 0.00 0.18 0.18 72 1010.1
20260831214535 87 135 0.9 1.7 0.00 0.18 0.18 71 1010.0
20260831214031 86 210 2.6 5.2 0.00 0.18 0.18 71 1009.5
20260831213527 85 99 0.9 5.2 0.00 0.18 0.18 73 1009.7
20260831213022 85 114 0.9 1.7 0.00 0.18 0.18 76 1009.8
20260831212518 85 121 0.0 1.7 0.07 0.18 0.18 76 1009.7
20260831212013 86 203 2.6 4.3 0.07 0.18 0.18 73 1009.5
20260831211508 87 200 2.6 5.2 0.00 0.17 0.17 70 1010.0
20260831211007 88 215 2.6 6.1 0.00 0.17 0.17 70 1009.8
20260831210503 88 122 0.9 2.6 0.00 0.17 0.17 71 1009.7
20260831205958 88 118 0.0 1.7 0.00 0.17 0.17 73 1010.0
20260831205453 88 121 0.9 1.7 0.00 0.17 0.17 73 1009.8
20260831204949 87 149 1.7 1.7 0.00 0.17 0.17 74 1010.2
20260831204448 88 135 0.9 1.7 0.00 0.17 0.17 73 1010.2
20260831203942 88 119 0.9 1.7 0.00 0.17 0.17 76 1010.1